TAX977 EDDH-EDDS

Flight info

Callsign TAX977
Flight time N/A
Altitude 35000
Route IDEKO7G/33 IDEKO N850 NIE DCT BERXO DCT SILWE DCT OSBIT P605 TOSTU T726 LBU
Aircraft A320/M-SDE3FGHIRWY/LB1

Departure

Time 2026-05-06 19:08
Airport Hamburg Helmut Schmidt Airport (EDDH)

Arrival

Time N/A
Airport Stuttgart Airport (EDDS)
Time Latitude Longitude Altitude Speed Heading
2026-05-06 18:46 53.62892 10.00213 46 ft 0 kts 123°
2026-05-06 18:59 53.62900 10.00192 20 ft 4 kts 123°
2026-05-06 19:00 53.62915 10.00154 46 ft 4 kts 132°
2026-05-06 19:00 53.62935 10.00132 43 ft 4 kts 177°
2026-05-06 19:00 53.62954 10.00139 42 ft 1 kts 213°
2026-05-06 19:00 53.62958 10.00143 42 ft 0 kts 213°
2026-05-06 19:03 53.62950 10.00134 43 ft 5 kts 213°
2026-05-06 19:03 53.62918 10.00099 46 ft 6 kts 213°
2026-05-06 19:03 53.62882 10.00057 46 ft 6 kts 217°
2026-05-06 19:03 53.62858 10.00016 46 ft 4 kts 227°
2026-05-06 19:04 53.62847 9.99987 46 ft 2 kts 245°
2026-05-06 19:04 53.62845 9.99980 46 ft 0 kts 245°
2026-05-06 19:04 53.62835 9.99943 47 ft 5 kts 245°
2026-05-06 19:05 53.62823 9.99897 47 ft 5 kts 245°
2026-05-06 19:05 53.62811 9.99810 47 ft 9 kts 289°
2026-05-06 19:05 53.62855 9.99756 47 ft 7 kts 331°
2026-05-06 19:05 53.62859 9.99752 47 ft 0 kts 332°
2026-05-06 19:06 53.62863 9.99749 47 ft 0 kts 334°
2026-05-06 19:07 53.62870 9.99743 47 ft 7 kts 334°
2026-05-06 19:07 53.63087 9.99557 46 ft 74 kts 334°
2026-05-06 19:07 53.63697 9.99039 43 ft 135 kts 332°
2026-05-06 19:07 53.64688 9.98235 449 ft 168 kts 336°
2026-05-06 19:08 53.65752 9.97325 1388 ft 174 kts 338°
2026-05-06 19:08 53.66899 9.96344 2130 ft 195 kts 338°
2026-05-06 19:08 53.68165 9.95261 2552 ft 213 kts 337°
2026-05-06 19:08 53.69508 9.94103 3137 ft 219 kts 337°
2026-05-06 19:09 53.70844 9.92798 3821 ft 228 kts 322°
2026-05-06 19:09 53.71662 9.90531 4009 ft 241 kts 282°
2026-05-06 19:09 53.71554 9.87580 4525 ft 259 kts 257°
2026-05-06 19:09 53.70994 9.84639 5262 ft 272 kts 250°
2026-05-06 19:10 53.70280 9.81625 6053 ft 280 kts 248°
2026-05-06 19:10 53.69537 9.78549 6940 ft 284 kts 249°
2026-05-06 19:10 53.68817 9.75431 7847 ft 287 kts 250°
2026-05-06 19:10 53.68121 9.72237 8753 ft 290 kts 251°
2026-05-06 19:11 53.67446 9.68991 9572 ft 294 kts 252°
2026-05-06 19:11 53.66791 9.65744 9839 ft 296 kts 252°
2026-05-06 19:11 53.65931 9.62537 9900 ft 314 kts 238°
2026-05-06 19:11 53.64436 9.59673 9911 ft 333 kts 219°
2026-05-06 19:12 53.62452 9.57745 9914 ft 336 kts 200°
2026-05-06 19:12 53.60147 9.56925 10013 ft 337 kts 185°
2026-05-06 19:12 53.57827 9.56496 10851 ft 338 kts 185°
2026-05-06 19:12 53.55481 9.56038 11756 ft 337 kts 186°
2026-05-06 19:13 53.53242 9.55589 12944 ft 312 kts 187°
2026-05-06 19:13 53.51176 9.55178 13633 ft 292 kts 187°
2026-05-06 19:13 53.49119 9.54770 13727 ft 305 kts 187°
2026-05-06 19:13 53.46934 9.54335 13859 ft 329 kts 187°
2026-05-06 19:14 53.44588 9.53865 14161 ft 344 kts 187°
2026-05-06 19:14 53.42196 9.53386 14751 ft 349 kts 187°
2026-05-06 19:14 53.39770 9.52910 15443 ft 352 kts 188°
2026-05-06 19:14 53.37321 9.52434 16132 ft 354 kts 188°
2026-05-06 19:15 53.34867 9.51954 16846 ft 356 kts 188°
2026-05-06 19:15 53.32394 9.51469 17530 ft 359 kts 188°
2026-05-06 19:15 53.29906 9.50979 18196 ft 362 kts 188°
2026-05-06 19:15 53.27415 9.50487 18759 ft 365 kts 188°
2026-05-06 19:16 53.24887 9.49988 19310 ft 368 kts 188°
2026-05-06 19:16 53.22326 9.49485 19752 ft 372 kts 188°
2026-05-06 19:16 53.19759 9.48986 19868 ft 372 kts 188°
2026-05-06 19:16 53.17175 9.48484 20008 ft 375 kts 188°
2026-05-06 19:17 53.14573 9.47976 20583 ft 377 kts 188°
2026-05-06 19:17 53.11965 9.47468 21124 ft 380 kts 188°
2026-05-06 19:17 53.09333 9.46957 21644 ft 383 kts 188°
2026-05-06 19:17 53.06671 9.46443 22154 ft 386 kts 188°
2026-05-06 19:18 53.03986 9.45928 22674 ft 389 kts 188°
2026-05-06 19:18 53.01280 9.45412 23171 ft 393 kts 188°
2026-05-06 19:18 52.98585 9.44892 23619 ft 396 kts 188°
2026-05-06 19:18 52.95801 9.44323 24035 ft 399 kts 188°
2026-05-06 19:19 52.93080 9.43737 24442 ft 401 kts 189°
2026-05-06 19:19 52.90308 9.43125 24869 ft 403 kts 189°
2026-05-06 19:19 52.87513 9.42507 25270 ft 406 kts 189°
2026-05-06 19:19 52.84707 9.41890 25694 ft 407 kts 189°
2026-05-06 19:20 52.81883 9.41281 26092 ft 410 kts 189°
2026-05-06 19:20 52.79050 9.40685 26493 ft 412 kts 188°
2026-05-06 19:20 52.76197 9.40092 26877 ft 414 kts 188°
2026-05-06 19:20 52.73321 9.39493 27259 ft 417 kts 188°
2026-05-06 19:21 52.70466 9.38891 27629 ft 419 kts 188°
2026-05-06 19:21 52.67525 9.38264 28009 ft 421 kts 189°
2026-05-06 19:21 52.64646 9.37710 28370 ft 424 kts 185°
2026-05-06 19:21 52.61687 9.37783 28753 ft 428 kts 175°
2026-05-06 19:22 52.58753 9.38645 29138 ft 431 kts 168°
2026-05-06 19:22 52.55813 9.39767 29488 ft 433 kts 168°
2026-05-06 19:22 52.52879 9.40872 29843 ft 435 kts 168°
2026-05-06 19:22 52.49916 9.41978 30141 ft 437 kts 168°
2026-05-06 19:23 52.46941 9.43085 30432 ft 439 kts 169°
2026-05-06 19:23 52.43957 9.44193 30717 ft 440 kts 169°
2026-05-06 19:23 52.40959 9.45306 31002 ft 442 kts 169°
2026-05-06 19:23 52.37960 9.46418 31269 ft 443 kts 169°
2026-05-06 19:24 52.34955 9.47535 31635 ft 442 kts 169°
2026-05-06 19:24 52.31998 9.48637 32053 ft 440 kts 169°
2026-05-06 19:24 52.28980 9.49762 32464 ft 438 kts 169°
2026-05-06 19:24 52.26046 9.50849 32874 ft 437 kts 169°
2026-05-06 19:25 52.23086 9.51940 33278 ft 435 kts 170°
2026-05-06 19:25 52.20133 9.53026 33690 ft 434 kts 170°
2026-05-06 19:25 52.17190 9.54105 34057 ft 432 kts 170°
2026-05-06 19:25 52.14251 9.55182 34372 ft 431 kts 170°
2026-05-06 19:26 52.11333 9.56253 34674 ft 431 kts 170°
2026-05-06 19:26 52.08404 9.57326 34814 ft 430 kts 170°
2026-05-06 19:26 52.05507 9.58393 34845 ft 425 kts 170°
2026-05-06 19:27 51.99766 9.60506 34844 ft 421 kts 170°
2026-05-06 19:27 51.94081 9.62574 34841 ft 421 kts 170°
2026-05-06 19:28 51.88357 9.64643 34836 ft 421 kts 170°
2026-05-06 19:28 51.82642 9.66717 34839 ft 421 kts 170°
2026-05-06 19:29 51.76949 9.68786 34838 ft 421 kts 170°
2026-05-06 19:29 51.71226 9.70862 34840 ft 421 kts 170°
2026-05-06 19:30 51.65543 9.72910 34818 ft 421 kts 170°
2026-05-06 19:30 51.59831 9.74960 34824 ft 420 kts 171°
2026-05-06 19:31 51.54126 9.76992 34829 ft 420 kts 171°
2026-05-06 19:31 51.45516 9.78304 34829 ft 414 kts 182°
2026-05-06 19:32 51.39733 9.78295 34818 ft 414 kts 182°
2026-05-06 19:32 51.33968 9.78284 34832 ft 413 kts 182°
2026-05-06 19:33 51.28255 9.78284 34821 ft 413 kts 182°
2026-05-06 19:33 51.22503 9.78294 34828 ft 412 kts 182°
2026-05-06 19:34 51.16779 9.78301 34817 ft 408 kts 182°
2026-05-06 19:34 51.13988 9.78304 34783 ft 395 kts 182°
2026-05-06 19:34 51.11278 9.78310 34808 ft 388 kts 182°
2026-05-06 19:35 51.05749 9.78302 34817 ft 404 kts 182°
2026-05-06 19:35 51.00091 9.78295 34816 ft 407 kts 182°
2026-05-06 19:36 50.94414 9.78297 34825 ft 408 kts 182°
2026-05-06 19:36 50.88777 9.78289 34822 ft 406 kts 182°
2026-05-06 19:37 50.83131 9.78295 34817 ft 405 kts 182°
2026-05-06 19:37 50.78433 9.78305 34822 ft 405 kts 182°
2026-05-06 19:38 50.71843 9.78303 34816 ft 405 kts 182°
2026-05-06 19:38 50.66203 9.78301 34815 ft 405 kts 182°
2026-05-06 19:39 50.60567 9.78300 34810 ft 405 kts 182°
2026-05-06 19:39 50.54968 9.78295 34810 ft 405 kts 182°
2026-05-06 19:40 50.49326 9.78296 34803 ft 404 kts 182°
2026-05-06 19:40 50.43740 9.78298 34814 ft 402 kts 182°
2026-05-06 19:41 50.38115 9.78297 34822 ft 401 kts 182°
2026-05-06 19:41 50.32577 9.78294 34822 ft 400 kts 182°
2026-05-06 19:42 50.27009 9.78299 34817 ft 400 kts 182°
2026-05-06 19:42 50.21437 9.78300 34814 ft 400 kts 182°
2026-05-06 19:43 50.15866 9.78298 34541 ft 400 kts 182°
2026-05-06 19:43 50.13095 9.78301 34280 ft 396 kts 182°
2026-05-06 19:43 50.10343 9.78302 33808 ft 392 kts 182°
2026-05-06 19:44 50.07637 9.78303 33219 ft 389 kts 182°
2026-05-06 19:44 50.04964 9.78345 32701 ft 385 kts 180°
2026-05-06 19:44 50.03161 9.78427 32344 ft 383 kts 179°
2026-05-06 19:44 50.00514 9.78604 31823 ft 380 kts 178°
2026-05-06 19:45 49.97027 9.78881 31153 ft 376 kts 177°
2026-05-06 19:45 49.94430 9.79084 30655 ft 373 kts 177°
2026-05-06 19:45 49.91849 9.79275 30160 ft 370 kts 177°
2026-05-06 19:45 49.90103 9.79397 29825 ft 369 kts 177°
2026-05-06 19:46 49.87554 9.79566 29302 ft 365 kts 177°
2026-05-06 19:46 49.85035 9.79729 28830 ft 360 kts 177°
2026-05-06 19:46 49.82577 9.79887 28390 ft 356 kts 177°
2026-05-06 19:46 49.80116 9.80041 27939 ft 352 kts 178°
2026-05-06 19:47 49.77686 9.80190 27519 ft 347 kts 177°
2026-05-06 19:47 49.75278 9.80341 27084 ft 343 kts 177°
2026-05-06 19:47 49.72912 9.80492 26682 ft 340 kts 177°
2026-05-06 19:47 49.70558 9.80641 26277 ft 336 kts 178°
2026-05-06 19:48 49.68237 9.80765 25889 ft 332 kts 178°
2026-05-06 19:48 49.65936 9.80868 25473 ft 330 kts 178°
2026-05-06 19:48 49.63658 9.80963 25071 ft 328 kts 178°
2026-05-06 19:48 49.61369 9.81066 24650 ft 326 kts 177°
2026-05-06 19:49 49.59150 9.81523 24226 ft 325 kts 170°
2026-05-06 19:49 49.56922 9.82147 23793 ft 324 kts 170°
2026-05-06 19:49 49.54698 9.82763 23344 ft 324 kts 170°
2026-05-06 19:49 49.52478 9.83376 22843 ft 323 kts 170°
2026-05-06 19:50 49.50262 9.83989 22399 ft 321 kts 170°
2026-05-06 19:50 49.48076 9.84592 21960 ft 319 kts 170°
2026-05-06 19:50 49.45895 9.85195 21527 ft 318 kts 170°
2026-05-06 19:50 49.43710 9.85799 21092 ft 317 kts 170°
2026-05-06 19:51 49.41546 9.86395 20655 ft 315 kts 171°
2026-05-06 19:51 49.39398 9.86987 20236 ft 313 kts 171°
2026-05-06 19:51 49.37214 9.87387 19809 ft 319 kts 184°
2026-05-06 19:51 49.35076 9.86583 19394 ft 320 kts 206°
2026-05-06 19:52 49.33304 9.84573 18987 ft 322 kts 222°
2026-05-06 19:52 49.31723 9.82129 18590 ft 322 kts 224°
2026-05-06 19:52 49.30152 9.79637 18235 ft 326 kts 224°
2026-05-06 19:52 49.28574 9.77138 17840 ft 325 kts 224°
2026-05-06 19:53 49.27002 9.74655 17435 ft 324 kts 224°
2026-05-06 19:53 49.25432 9.72185 17032 ft 322 kts 224°
2026-05-06 19:53 49.23866 9.69732 16595 ft 321 kts 224°
2026-05-06 19:53 49.22305 9.67294 16154 ft 321 kts 224°
2026-05-06 19:54 49.20758 9.64891 15744 ft 320 kts 224°
2026-05-06 19:54 49.19191 9.62468 15306 ft 320 kts 224°
2026-05-06 19:54 49.17622 9.60052 14878 ft 319 kts 224°
2026-05-06 19:54 49.16054 9.57650 14462 ft 319 kts 224°
2026-05-06 19:55 49.14491 9.55263 14040 ft 318 kts 224°
2026-05-06 19:55 49.12926 9.52888 13621 ft 317 kts 225°
2026-05-06 19:55 49.11346 9.50534 13136 ft 317 kts 223°
2026-05-06 19:55 49.09540 9.48661 12657 ft 316 kts 202°
2026-05-06 19:56 49.07393 9.47990 12187 ft 316 kts 186°
2026-05-06 19:56 49.05212 9.47807 11715 ft 308 kts 184°
2026-05-06 19:56 49.03101 9.47670 11251 ft 299 kts 184°
2026-05-06 19:56 49.01024 9.47540 10820 ft 298 kts 184°
2026-05-06 19:57 48.98977 9.47414 10436 ft 297 kts 184°
2026-05-06 19:57 48.96917 9.47288 10050 ft 296 kts 184°
2026-05-06 19:57 48.94879 9.47166 9853 ft 287 kts 184°
2026-05-06 19:57 48.92900 9.47051 9860 ft 284 kts 184°
2026-05-06 19:58 48.90935 9.46937 9861 ft 283 kts 184°
2026-05-06 19:58 48.88964 9.46833 9861 ft 282 kts 184°
2026-05-06 19:58 48.87003 9.46733 9867 ft 282 kts 184°
2026-05-06 19:58 48.85067 9.46635 9866 ft 272 kts 184°
2026-05-06 19:59 48.83222 9.46742 9865 ft 260 kts 168°
2026-05-06 19:59 48.81665 9.47968 9863 ft 251 kts 139°
2026-05-06 19:59 48.80494 9.49898 9863 ft 248 kts 127°
2026-05-06 19:59 48.79865 9.52327 9866 ft 252 kts 100°
2026-05-06 20:00 48.79816 9.54987 9868 ft 254 kts 78°
2026-05-06 20:00 48.80416 9.57502 9869 ft 253 kts 65°
2026-05-06 20:00 48.81166 9.59922 9580 ft 253 kts 64°
2026-05-06 20:00 48.81926 9.62296 9380 ft 247 kts 64°
2026-05-06 20:01 48.82650 9.64578 9238 ft 238 kts 68°
2026-05-06 20:01 48.82910 9.66993 8977 ft 232 kts 102°
2026-05-06 20:01 48.82297 9.69173 8663 ft 222 kts 136°
2026-05-06 20:01 48.81045 9.70393 8350 ft 212 kts 172°
2026-05-06 20:02 48.79653 9.70251 8179 ft 195 kts 208°
2026-05-06 20:02 48.78689 9.68946 7859 ft 190 kts 244°
2026-05-06 20:02 48.78525 9.67016 7722 ft 174 kts 291°
2026-05-06 20:02 48.79161 9.65866 8196 ft 133 kts 320°
2026-05-06 20:03 48.80105 9.64730 7397 ft 223 kts 305°
2026-05-06 20:03 48.80836 9.62263 6721 ft 291 kts 283°